Weather History for KJEF - October, 2013

Change the Weather History Date:

Friday, October 25, 2013

  Actual Average Record
Temperature  
Mean Temperature 40 °F -  
Max Temperature 55 °F 64 °F 87 °F (1940)
Min Temperature 24 °F 39 °F 24 °F (1968)
Degree Days  
Heating Degree Days 26    
Moisture  
Dew Point 24 °F    
Average Humidity 68    
Maximum Humidity 100    
Minimum Humidity 24    
Precipitation  
Precipitation 0.00 in - - ()
Sea Level Pressure  
Sea Level Pressure 30.42 in    
Wind  
Wind Speed 1 mph (SSE)    
Max Wind Speed 10 mph    
Max Gust Speed -    
Visibility 8 miles    
Events Fog    
Averages and records for this station are not official NWS values.
T = Trace of Precipitation, MM = Missing Value Source: NWS Daily Summary

Daily Weather History Graph

Daily Weather History Graph

Search for Another Location

Airport or City:

Trip Planner

Search our weather history database for the weather conditions in past years. The results will help you decide how hot, cold, wet, or windy it might be!

Date:

Astronomy

Oct. 25, 2013 Rise Set
Actual Time 7:28 AM CDT 6:16 PM CDT
Civil Twilight 7:00 AM CDT 6:43 PM CDT
Nautical Twilight 6:29 AM CDT 7:14 PM CDT
Astronomical Twilight 5:59 AM CDT 7:45 PM CDT
Moon 11:37 PM CDT (10/25) 1:07 PM CDT (10/25)
Length of Visible Light 11h 42m
Length of Day
10h 48m
Waning Gibbous, 62% of the Moon is Illuminated
Oct 25
Waning Gibbous
Oct 26
Last Quarter
Nov 3
New
Nov 9
First Quarter
Nov 17
Full

Hourly Weather History & Observations

Time (CDT) Temp. Windchill Dew Point Humidity Pressure Visibility Wind Dir Wind Speed Gust Speed Precip Events Conditions
12:53 AM 28.9 °F - 25.0 °F 85% 30.43 in 10.0 mi Calm Calm - N/A   Clear
1:53 AM 28.0 °F - 24.1 °F 85% 30.44 in 10.0 mi Calm Calm - N/A   Clear
2:53 AM 28.0 °F - 24.1 °F 85% 30.45 in 10.0 mi Calm Calm - N/A   Clear
3:53 AM 27.0 °F - 23.0 °F 85% 30.45 in 10.0 mi Calm Calm - N/A   Clear
4:53 AM 27.0 °F - 24.1 °F 89% 30.47 in 10.0 mi Calm Calm - N/A   Clear
5:07 AM 26.6 °F - 23.0 °F 86% 30.49 in 10.0 mi Calm Calm - N/A   Scattered Clouds
5:40 AM 26.6 °F - 23.0 °F 86% 30.50 in 4.0 mi Calm Calm - N/A   Mostly Cloudy
5:53 AM 26.1 °F - 23.0 °F 88% 30.48 in 6.0 mi Calm Calm - N/A   Overcast
5:58 AM 26.6 °F - 23.0 °F 86% 30.50 in 1.0 mi Calm Calm - N/A   Mist
6:05 AM 26.6 °F - 23.0 °F 86% 30.50 in 0.5 mi Calm Calm - N/A Fog Light Freezing Fog
6:09 AM 26.6 °F - 24.8 °F 93% 30.50 in 2.0 mi Calm Calm - N/A   Mostly Cloudy
6:16 AM 26.6 °F - 23.0 °F 86% 30.50 in 10.0 mi Calm Calm - N/A   Scattered Clouds
6:26 AM 24.8 °F - 21.2 °F 86% 30.50 in 2.0 mi Calm Calm - N/A   Mostly Cloudy
6:29 AM 24.8 °F - 23.0 °F 93% 30.50 in 0.8 mi Calm Calm - N/A   Mostly Cloudy
6:40 AM 24.8 °F - 24.8 °F 100% 30.50 in 2.0 mi Calm Calm - N/A   Mostly Cloudy
6:48 AM 24.8 °F - 23.0 °F 93% 30.50 in 1.5 mi Calm Calm - N/A   Mostly Cloudy
6:53 AM 25.0 °F - 24.1 °F 96% 30.49 in 5.0 mi Calm Calm - N/A   Mostly Cloudy
7:00 AM 24.8 °F - 23.0 °F 93% 30.51 in 10.0 mi Calm Calm - N/A   Partly Cloudy
7:53 AM 26.1 °F 21.9 °F 24.1 °F 92% 30.49 in 10.0 mi East 3.5 mph - N/A   Clear
8:53 AM 30.0 °F 26.5 °F 27.0 °F 88% 30.51 in 10.0 mi ESE 3.5 mph - N/A   Clear
9:53 AM 36.0 °F 33.3 °F 30.9 °F 82% 30.51 in 10.0 mi ESE 3.5 mph - N/A   Clear
10:53 AM 45.0 °F 43.5 °F 30.9 °F 58% 30.49 in 10.0 mi Variable 3.5 mph - N/A   Clear
11:53 AM 48.9 °F - 25.0 °F 39% 30.47 in 10.0 mi Variable 4.6 mph - N/A   Clear
12:53 PM 50.0 °F - 24.1 °F 36% 30.44 in 10.0 mi Variable 4.6 mph - N/A   Clear
1:53 PM 53.1 °F - 21.9 °F 30% 30.40 in 10.0 mi South 4.6 mph - N/A   Clear
2:53 PM 55.0 °F - 23.0 °F 29% 30.36 in 10.0 mi SW 5.8 mph - N/A   Clear
3:53 PM 55.0 °F - 19.0 °F 24% 30.33 in 10.0 mi SSW 8.1 mph - N/A   Clear
4:53 PM 55.0 °F - 19.0 °F 24% 30.31 in 10.0 mi South 10.4 mph - N/A   Clear
5:53 PM 54.0 °F - 21.0 °F 28% 30.28 in 10.0 mi South 6.9 mph - N/A   Clear
6:53 PM 50.0 °F - 21.9 °F 33% 30.26 in 10.0 mi SE 3.5 mph - N/A   Clear
7:53 PM 46.9 °F - 24.1 °F 41% 30.25 in 10.0 mi ESE 4.6 mph - N/A   Clear
8:53 PM 46.9 °F - 24.1 °F 41% 30.24 in 10.0 mi ESE 4.6 mph - N/A   Clear
9:53 PM 44.1 °F 41.5 °F 24.1 °F 45% 30.22 in 10.0 mi ESE 4.6 mph - N/A   Clear
10:53 PM 43.0 °F 41.3 °F 25.0 °F 49% 30.20 in 10.0 mi SE 3.5 mph - N/A   Clear
11:53 PM 44.1 °F 42.5 °F 25.0 °F 47% 30.18 in 10.0 mi SSE 3.5 mph - N/A   Clear